星链-1232 (STARLINK-1232 )

导读 | 豆包AI

STARLINK-1232是美国太空探索技术公司(SpaceX)星链(Starlink)星座的卫星,由美国于2020年2月17日发射,是星链计划早期组网卫星之一。星链计划旨在构建全球卫星互联网,该卫星主要服务于提供全球覆盖的高速宽带通信,尤其支持偏远地区网络接入,运行于近地轨道。

基本信息
目录编号:
45213
目录名称:
STARLINK-1232
国际标识:
2020-012AM
轨道中心:
EARTH
卫星名称:
星链-1232
卫星全名:
星链-1232 (STARLINK-1232 )
卫星状态:
已陨落 最后检测时间 2023-12-13
发射日期:
2020-02-17 UTC
国别 :
美国 (US)
星等 :
--
轨道信息
数据来源 国际轨道数据
星历时间: 2023-12-13T15:44:50+0800
轨道信息已过期822天
半长轴: 6530.843km
偏心率: 0.0004957
轨道倾角: 53.031°
近地点辐角 262.433°
升交点赤经 235.851°
平近点角 200.154°
近地点: 149.47km
远地点: 155.946km
周期: 87.541分钟
每日圈数: 16.449357
详细信息
固有亮度:
5
最大亮度:
2.5
卫星平台:
Starlink V1.0
覆盖范围:
全球
运营商:
太空探索技术公司
运营商所在国:
美国
制造商(研发单位):
太空探索技术公司
制造商所在国:
美国
使用方式:
暂无
卫星简介
星链(Starlink)计划是由太空探索技术公司(SpaceX)提出的一个巨型低轨卫星互联网星座项目,计划在2019年至2024年间在太空搭建由约1.2万颗卫星组成的“星链”网络,其中1584颗将部署在地球上空550千米处的近地轨道,并从2020年开始工作。该卫星已陨落。